Location: Artiguedieu
(43.5000°N, 0.5454°E)
Time: 20:22:02
(UTC+00:00)

Transit 2A - Pass Details

Date: 01 August 2021
Orbit: 594 x 964 km, 66.7° (Epoch: 28 September)

Event Time Altitude Azimuth Distance (km) Brightness Sun altitude
Rises 06:53:54 0° 232° (SW) 2,833 8.5 21.1°
Reaches altitude 10° 06:56:13 10° 241° (WSW) 1,953 7.7 21.5°
Maximum altitude 07:00:17 37° 309° (NW) 978 6.5 22.3°
Drops below altitude 10° 07:04:39 10° 18° (NNE) 2,097 8.6 23.1°
Sets 07:07:13 0° 27° (NNE) 3,073 9.5 23.5°
